Location: Salillas
(41.9950°N, 0.2228°W)
Time: 01:35:42
(UTC+00:00)

STARLINK-1093 - Pass Details

Date: 29 March 2020
Orbit: 548 x 551 km, 53.0° (Epoch: 05 June)

Event Time Altitude Azimuth Distance (km) Brightness Sun altitude
Rises 19:21:42 0° 303° (WNW) 2,720 8.8 -11.4°
Reaches altitude 10° 19:24:00 10° 296° (WNW) 1,823 7.7 -11.8°
Maximum altitude 19:27:57 44° 224° (SW) 763 4.5 -12.5°
Enters shadow 19:31:40 11° 153° (SSE) 1,732 5.7 -13.2°
